English version
lugares datos climáticos artículos

datos de Mairena del Aljarafe, Sevilla, España
Año Mes Dia Mostrar

  Fecha       hora        Temp.ext.    Hum.ext.  Dir.Viento   Vel.Viento  Presion al NM   T.int. Prec.hoy 

   26-05-2017    20:50      23.8º(-1.4)     67%      225(SW)      4.8 km/h    1011.8 hpa     28.7º    0.0 mm
   26-05-2017    20:45      23.9º(-1.3)     67%      180 (S)      6.4 km/h    1011.8 hpa     28.8º    0.0 mm
   26-05-2017    20:40      24.1º(-1.2)     66%      202 (S)      4.8 km/h    1011.8 hpa     28.8º    0.0 mm
   26-05-2017    20:35      24.1º(-1.3)     66%      225(SW)      6.4 km/h    1011.8 hpa     28.8º    0.0 mm
   26-05-2017    20:30      24.3º(-1.4)     65%      225(SW)      4.8 km/h    1011.8 hpa     28.8º    0.0 mm
   26-05-2017    20:25      24.4º(-1.3)     65%      225(SW)      6.4 km/h    1011.9 hpa     28.8º    0.0 mm
   26-05-2017    20:20      24.6º(-1.1)     64%      247(SW)      6.4 km/h    1011.8 hpa     28.8º    0.0 mm
   26-05-2017    20:15      24.7º(-1.4)     64%      247(SW)      6.4 km/h    1011.8 hpa     28.8º    0.0 mm
   26-05-2017    20:10      24.8º(-1.6)     64%      247(SW)      4.8 km/h    1011.8 hpa     28.8º    0.0 mm
   26-05-2017    20:05      24.9º(-1.5)     63%      225(SW)      6.4 km/h    1011.8 hpa     28.8º    0.0 mm
   26-05-2017    20:00      25.1º(-1.2)     63%      270 (W)      6.4 km/h    1011.7 hpa     28.8º    0.0 mm
   26-05-2017    19:55      25.0º(-1.4)     63%      247(SW)      3.2 km/h    1011.6 hpa     28.8º    0.0 mm
   26-05-2017    19:50      24.8º(-1.6)     64%      247(SW)      6.4 km/h    1011.6 hpa     28.8º    0.0 mm
   26-05-2017    19:45      24.8º(-1.7)     63%      247(SW)      6.4 km/h    1011.5 hpa     28.8º    0.0 mm
   26-05-2017    19:40      25.0º(-1.5)     63%      225(SW)      3.2 km/h    1011.6 hpa     28.8º    0.0 mm
   26-05-2017    19:35      25.1º(-1.6)     62%      225(SW)      4.8 km/h    1011.5 hpa     28.8º    0.0 mm
   26-05-2017    19:30      25.4º(-1.6)     61%      202 (S)      4.8 km/h    1011.6 hpa     28.8º    0.0 mm
   26-05-2017    19:25      25.7º(-1.8)     60%      247(SW)      3.2 km/h    1011.5 hpa     28.8º    0.0 mm
   26-05-2017    19:20      25.7º(-2.0)     60%      225(SW)      1.6 km/h    1011.4 hpa     28.8º    0.0 mm
   26-05-2017    19:15      25.6º(-2.2)     60%         -         0.0 km/h    1011.4 hpa     28.8º    0.0 mm
   26-05-2017    19:10      25.6º(-2.5)     60%      270 (W)      3.2 km/h    1011.4 hpa     28.8º    0.0 mm
   26-05-2017    19:05      25.8º(-2.4)     60%      270 (W)      4.8 km/h    1011.4 hpa     28.8º    0.0 mm
   26-05-2017    19:00      25.7º(-2.7)     60%      270 (W)      1.6 km/h    1011.4 hpa     28.8º    0.0 mm
   26-05-2017    18:55      25.4º(-3.0)     62%      225(SW)      1.6 km/h    1011.5 hpa     28.7º    0.0 mm
   26-05-2017    18:50      25.3º(-3.2)     61%      247(SW)      4.8 km/h    1011.6 hpa     28.7º    0.0 mm
   26-05-2017    18:45      25.0º(-3.2)     62%      270 (W)      4.8 km/h    1011.7 hpa     28.7º    0.0 mm
   26-05-2017    18:40      24.8º(-3.1)     64%      270 (W)      3.2 km/h    1011.7 hpa     28.7º    0.0 mm
   26-05-2017    18:35      24.8º(-3.3)     63%      270 (W)      9.7 km/h    1011.7 hpa     28.7º    0.0 mm
   26-05-2017    18:30      24.8º(-3.5)     63%      270 (W)      8.0 km/h    1011.6 hpa     28.7º    0.0 mm
   26-05-2017    18:25      24.8º(-3.4)     64%      270 (W)      6.4 km/h    1011.7 hpa     28.7º    0.0 mm
   26-05-2017    18:20      24.6º(-3.8)     64%      270 (W)      4.8 km/h    1011.7 hpa     28.7º    0.0 mm
   26-05-2017    18:15      24.7º(-3.9)     62%      270 (W)      9.7 km/h    1011.7 hpa     28.7º    0.0 mm
   26-05-2017    18:10      24.8º(-4.1)     63%      270 (W)      3.2 km/h    1011.8 hpa     28.7º    0.0 mm
   26-05-2017    18:05      24.8º(-4.2)     63%      270 (W)      8.0 km/h    1011.8 hpa     28.7º    0.0 mm
   26-05-2017    18:00      24.8º(-4.3)     63%      270 (W)      4.8 km/h    1011.8 hpa     28.7º    0.0 mm
   26-05-2017    17:55      24.9º(-4.5)     62%      270 (W)      8.0 km/h    1011.8 hpa     28.6º    0.0 mm
   26-05-2017    17:50      25.3º(-4.2)     61%      247(SW)      4.8 km/h    1012.0 hpa     28.6º    0.0 mm
   26-05-2017    17:45      25.3º(-4.3)     62%      225(SW)      3.2 km/h    1012.0 hpa     28.6º    0.0 mm
   26-05-2017    17:40      25.2º(-4.4)     61%      225(SW)      4.8 km/h    1012.1 hpa     28.6º    0.0 mm
   26-05-2017    17:35      25.1º(-4.7)     62%      270 (W)      6.4 km/h    1012.0 hpa     28.6º    0.0 mm
   26-05-2017    17:30      25.1º(-4.8)     62%      225(SW)      4.8 km/h    1012.1 hpa     28.6º    0.0 mm
   26-05-2017    17:25      25.2º(-4.9)     61%      225(SW)      6.4 km/h    1012.1 hpa     28.6º    0.0 mm
   26-05-2017    17:20      25.1º(-5.3)     62%      135(SE)      4.8 km/h    1012.1 hpa     28.6º    0.0 mm
   26-05-2017    17:15      25.0º(-5.3)     62%      225(SW)      3.2 km/h    1012.2 hpa     28.6º    0.0 mm
   26-05-2017    17:10      24.9º(-5.7)     63%      202 (S)      4.8 km/h    1012.1 hpa     28.6º    0.0 mm
   26-05-2017    17:05      24.6º(-6.0)     64%      225(SW)      3.2 km/h    1012.2 hpa     28.6º    0.0 mm
   26-05-2017    17:00      24.4º(-6.7)     64%         -         0.0 km/h    1012.2 hpa     28.6º    0.0 mm
   26-05-2017    16:55      24.3º(-7.3)     64%      247(SW)      3.2 km/h    1012.3 hpa     28.6º    0.0 mm
   26-05-2017    16:50      24.4º(-7.7)     64%      270 (W)      8.0 km/h    1012.3 hpa     28.5º    0.0 mm
   26-05-2017    16:45      24.3º(-7.7)     65%      225(SW)      3.2 km/h    1012.3 hpa     28.5º    0.0 mm
   26-05-2017    16:40      24.1º(-7.9)     66%      225(SW)      1.6 km/h    1012.4 hpa     28.5º    0.0 mm
   26-05-2017    16:35      23.8º(-8.6)     67%      225(SW)      3.2 km/h    1012.5 hpa     28.5º    0.0 mm
   26-05-2017    16:30      23.7º(-8.7)     67%      247(SW)      4.8 km/h    1012.6 hpa     28.5º    0.0 mm
   26-05-2017    16:25      23.6º(-8.9)     67%      247(SW)      4.8 km/h    1012.6 hpa     28.5º    0.0 mm
   26-05-2017    16:20      23.6º(-8.7)     68%      247(SW)      4.8 km/h    1012.7 hpa     28.5º    0.0 mm
   26-05-2017    16:15      23.6º(-8.9)     68%      225(SW)      6.4 km/h    1012.8 hpa     28.5º    0.0 mm
   26-05-2017    16:10      23.5º(-8.8)     68%      180 (S)      6.4 km/h    1012.8 hpa     28.5º    0.0 mm
   26-05-2017    16:05      23.3º(-8.9)     69%      247(SW)      4.8 km/h    1012.9 hpa     28.5º    0.0 mm
   26-05-2017    16:00      23.2º(-8.9)     69%      270 (W)      4.8 km/h    1012.9 hpa     28.5º    0.0 mm
   26-05-2017    15:55      23.1º(-9.5)     70%      270 (W)      6.4 km/h    1013.0 hpa     28.5º    0.0 mm
   26-05-2017    15:50      23.0º(-9.6)     71%      270 (W)      3.2 km/h    1013.0 hpa     28.5º    0.0 mm
   26-05-2017    15:45      22.8º(-9.4)     71%      270 (W)      4.8 km/h    1013.1 hpa     28.5º    0.0 mm
   26-05-2017    15:40      22.8º(-9.2)     71%      270 (W)      4.8 km/h    1013.0 hpa     28.4º    0.0 mm
   26-05-2017    15:35      22.8º(-9.3)     72%      270 (W)      3.2 km/h    1013.0 hpa     28.4º    0.0 mm
   26-05-2017    15:30      22.6º(-9.4)     73%      270 (W)      4.8 km/h    1013.0 hpa     28.4º    0.0 mm
   26-05-2017    15:25      22.4º(-9.5)     74%      270 (W)      4.8 km/h    1013.1 hpa     28.4º    0.0 mm
   26-05-2017    15:20      22.2º(-9.5)     74%      270 (W)      6.4 km/h    1013.2 hpa     28.4º    0.0 mm
   26-05-2017    15:15      22.2º(-9.4)     74%      270 (W)      3.2 km/h    1013.3 hpa     28.3º    0.0 mm
   26-05-2017    15:10      22.1º(-9.3)     74%      247(SW)      4.8 km/h    1013.3 hpa     28.3º    0.0 mm
   26-05-2017    15:05      22.1º(-9.2)     76%      225(SW)      3.2 km/h    1013.4 hpa     28.3º    0.0 mm
   26-05-2017    15:00      22.0º(-9.3)     75%      247(SW)      6.4 km/h    1013.3 hpa     28.3º    0.0 mm
   26-05-2017    14:55      22.1º(-9.0)     76%      247(SW)      4.8 km/h    1013.4 hpa     28.3º    0.0 mm
   26-05-2017    14:50      21.9º(-8.8)     75%      247(SW)      4.8 km/h    1013.5 hpa     28.3º    0.0 mm
   26-05-2017    14:45      21.9º(-8.5)     76%      247(SW)      6.4 km/h    1013.4 hpa     28.3º    0.0 mm
   26-05-2017    14:40      21.9º(-8.7)     76%      225(SW)      6.4 km/h    1013.4 hpa     28.3º    0.0 mm
   26-05-2017    14:35      22.2º(-8.1)     76%      270 (W)      8.0 km/h    1013.4 hpa     28.3º    0.0 mm
   26-05-2017    14:30      22.2º(-8.7)     77%      247(SW)      3.2 km/h    1013.4 hpa     28.3º    0.0 mm
   26-05-2017    14:25      22.2º(-8.6)     77%      202 (S)      6.4 km/h    1013.4 hpa     28.3º    0.0 mm
   26-05-2017    14:20      22.2º(-8.4)     77%      225(SW)      6.4 km/h    1013.5 hpa     28.3º    0.0 mm
   26-05-2017    14:15      22.2º(-8.0)     76%      247(SW)      8.0 km/h    1013.4 hpa     28.3º    0.0 mm
   26-05-2017    14:10      22.3º(-7.8)     76%      225(SW)      6.4 km/h    1013.5 hpa     28.3º    0.0 mm
   26-05-2017    14:05      22.3º(-7.6)     75%      225(SW)      4.8 km/h    1013.5 hpa     28.3º    0.0 mm
   26-05-2017    14:00      22.5º(-7.2)     75%      202 (S)      6.4 km/h    1013.5 hpa     28.3º    0.0 mm
   26-05-2017    13:55      22.5º(-7.1)     75%      067(NE)      4.8 km/h    1013.4 hpa     28.3º    0.0 mm
   26-05-2017    13:50      22.6º(-6.8)     74%      225(SW)      4.8 km/h    1013.5 hpa     28.3º    0.0 mm
   26-05-2017    13:45      22.5º(-6.8)     75%         -         0.0 km/h    1013.6 hpa     28.3º    0.0 mm
   26-05-2017    13:40      22.4º(-7.0)     75%      247(SW)      6.4 km/h    1013.7 hpa     28.3º    0.0 mm
   26-05-2017    13:35      22.4º(-7.0)     75%      202 (S)      3.2 km/h    1013.7 hpa     28.3º    0.0 mm
   26-05-2017    13:30      22.5º(-6.7)     75%      180 (S)      4.8 km/h    1013.7 hpa     28.3º    0.0 mm
   26-05-2017    13:25      22.6º(-6.3)     74%      225(SW)      3.2 km/h    1013.6 hpa     28.3º    0.0 mm
   26-05-2017    13:20      22.7º(-6.1)     73%      225(SW)      6.4 km/h    1013.5 hpa     28.3º    0.0 mm
   26-05-2017    13:15      22.8º(-5.8)     73%      045(NE)      4.8 km/h    1013.6 hpa     28.3º    0.0 mm
   26-05-2017    13:10      22.8º(-5.5)     73%      135(SE)      3.2 km/h    1013.5 hpa     28.3º    0.0 mm
   26-05-2017    13:05      22.7º(-5.2)     74%      225(SW)      1.6 km/h    1013.5 hpa     28.3º    0.0 mm
   26-05-2017    13:00      22.5º(-4.8)     75%      225(SW)      1.6 km/h    1013.5 hpa     28.4º    0.0 mm
   26-05-2017    12:55      22.4º(-4.8)     75%      225(SW)      1.6 km/h    1013.6 hpa     28.4º    0.0 mm
   26-05-2017    12:50      22.3º(-5.2)     75%      247(SW)      3.2 km/h    1013.6 hpa     28.4º    0.0 mm
   26-05-2017    12:45      22.3º(-5.4)     75%      225(SW)      3.2 km/h    1013.6 hpa     28.4º    0.0 mm
   26-05-2017    12:40      22.3º(-5.4)     76%      202 (S)      3.2 km/h    1013.6 hpa     28.3º    0.0 mm
   26-05-2017    12:35      22.3º(-5.3)     76%      225(SW)      1.6 km/h    1013.6 hpa     28.4º    0.0 mm
   26-05-2017    12:30      22.2º(-5.1)     76%      180 (S)      3.2 km/h    1013.5 hpa     28.3º    0.0 mm
   26-05-2017    12:25      22.2º(-4.9)     76%      247(SW)      3.2 km/h    1013.6 hpa     28.3º    0.0 mm
   26-05-2017    12:20      22.0º(-4.8)     78%      180 (S)      1.6 km/h    1013.5 hpa     28.3º    0.0 mm
   26-05-2017    12:15      21.7º(-5.0)     78%      225(SW)      1.6 km/h    1013.5 hpa     28.3º    0.0 mm
   26-05-2017    12:10      21.6º(-5.0)     78%      225(SW)      3.2 km/h    1013.6 hpa     28.3º    0.0 mm
   26-05-2017    12:05      21.6º(-4.7)     78%      202 (S)      4.8 km/h    1013.6 hpa     28.3º    0.0 mm
   26-05-2017    12:00      21.6º(-4.6)     78%      202 (S)      1.6 km/h    1013.7 hpa     28.3º    0.0 mm
   26-05-2017    11:55      21.6º(-4.3)     77%      202 (S)      3.2 km/h    1013.6 hpa     28.3º    0.0 mm
   26-05-2017    11:50      21.6º(-4.2)     77%      225(SW)      4.8 km/h    1013.5 hpa     28.3º    0.0 mm
   26-05-2017    11:45      21.7º(-4.1)     77%      202 (S)      3.2 km/h    1013.5 hpa     28.3º    0.0 mm
   26-05-2017    11:40      21.8º(-4.1)     76%      202 (S)      4.8 km/h    1013.5 hpa     28.3º    0.0 mm
   26-05-2017    11:35      21.9º(-3.7)     75%      225(SW)      1.6 km/h    1013.4 hpa     28.3º    0.0 mm
   26-05-2017    11:30      21.8º(-3.5)     77%         -         0.0 km/h    1013.5 hpa     28.3º    0.0 mm
   26-05-2017    11:25      21.6º(-3.6)     82%         -         0.0 km/h    1013.5 hpa     28.3º    0.0 mm
   26-05-2017    11:20      21.3º(-3.9)     82%         -         0.0 km/h    1013.4 hpa     28.3º    0.0 mm
   26-05-2017    11:15      21.2º(-4.0)     83%         -         0.0 km/h    1013.4 hpa     28.2º    0.0 mm
   26-05-2017    11:10      21.0º(-4.2)     84%         -         0.0 km/h    1013.3 hpa     28.2º    0.0 mm
   26-05-2017    11:05      20.7º(-4.3)     86%         -         0.0 km/h    1013.5 hpa     28.2º    0.0 mm
   26-05-2017    11:00      20.4º(-4.5)     86%         -         0.0 km/h    1013.4 hpa     28.2º    0.0 mm
   26-05-2017    10:55      20.3º(-4.6)     87%         -         0.0 km/h    1013.5 hpa     28.2º    0.0 mm
   26-05-2017    10:50      20.2º(-5.2)     87%      112 (E)      1.6 km/h    1013.4 hpa     28.2º    0.0 mm
   26-05-2017    10:45      20.1º(-5.5)     87%      112 (E)      3.2 km/h    1013.6 hpa     28.3º    0.0 mm
   26-05-2017    10:40      20.1º(-5.2)     87%         -         0.0 km/h    1013.5 hpa     28.3º    0.0 mm
   26-05-2017    10:35      20.1º(-5.1)     88%         -         0.0 km/h    1013.5 hpa     28.3º    0.0 mm
   26-05-2017    10:30      19.9º(-5.3)     88%         -         0.0 km/h    1013.5 hpa     28.4º    0.0 mm
   26-05-2017    10:25      19.9º(-5.1)     87%         -         0.0 km/h    1013.5 hpa     28.4º    0.0 mm
   26-05-2017    10:20      19.9º(-4.9)     88%         -         0.0 km/h    1013.4 hpa     28.4º    0.0 mm
   26-05-2017    10:15      19.8º(-4.7)     88%         -         0.0 km/h    1013.5 hpa     28.5º    0.0 mm
   26-05-2017    10:10      19.8º(-4.1)     88%         -         0.0 km/h    1013.5 hpa     28.5º    0.0 mm
   26-05-2017    10:05      19.7º(-3.8)     89%         -         0.0 km/h    1013.5 hpa     28.6º    0.0 mm
   26-05-2017    10:00      19.7º(-3.9)     89%         -         0.0 km/h    1013.5 hpa     28.6º    0.0 mm
   26-05-2017    09:55      19.7º(-4.0)     89%         -         0.0 km/h    1013.4 hpa     28.7º    0.0 mm
   26-05-2017    09:50      19.6º(-4.0)     89%         -         0.0 km/h    1013.4 hpa     28.8º    0.0 mm
   26-05-2017    09:45      19.6º(-3.6)     89%         -         0.0 km/h    1013.4 hpa     28.8º    0.0 mm
   26-05-2017    09:40      19.5º(-3.4)     90%         -         0.0 km/h    1013.4 hpa     28.8º    0.0 mm
   26-05-2017    09:35      19.4º(-3.4)     90%         -         0.0 km/h    1013.5 hpa     28.9º    0.0 mm
   26-05-2017    09:30      19.4º(-3.3)     90%         -         0.0 km/h    1013.3 hpa     28.9º    0.0 mm
   26-05-2017    09:25      19.4º(-3.3)     90%         -         0.0 km/h    1013.3 hpa     28.9º    0.0 mm
   26-05-2017    09:20      19.4º(-3.3)     90%         -         0.0 km/h    1013.3 hpa     28.9º    0.0 mm
   26-05-2017    09:15      19.4º(-3.3)     90%         -         0.0 km/h    1013.2 hpa     28.9º    0.0 mm
   26-05-2017    09:10      19.3º(-3.3)     90%         -         0.0 km/h    1013.2 hpa     28.9º    0.0 mm
   26-05-2017    09:05      19.3º(-3.1)     90%         -         0.0 km/h    1013.1 hpa     28.9º    0.0 mm
   26-05-2017    09:00      19.2º(-3.0)     90%         -         0.0 km/h    1013.2 hpa     28.9º    0.0 mm
   26-05-2017    08:55      19.2º(-2.8)     90%         -         0.0 km/h    1013.2 hpa     28.9º    0.0 mm
   26-05-2017    08:50      19.2º(-2.5)     90%      090 (E)      3.2 km/h    1013.1 hpa     28.9º    0.0 mm
   26-05-2017    08:45      19.3º(-2.2)     90%         -         0.0 km/h    1013.0 hpa     28.9º    0.0 mm
   26-05-2017    08:40      19.3º(-2.1)     91%         -         0.0 km/h    1013.1 hpa     28.9º    0.0 mm
   26-05-2017    08:35      19.3º(-2.1)     90%         -         0.0 km/h    1013.0 hpa     28.9º    0.0 mm
   26-05-2017    08:30      19.3º(-2.0)     91%         -         0.0 km/h    1013.1 hpa     28.9º    0.0 mm
   26-05-2017    08:25      19.3º(-2.0)     91%         -         0.0 km/h    1013.0 hpa     28.9º    0.0 mm
   26-05-2017    08:20      19.3º(-1.9)     91%         -         0.0 km/h    1013.0 hpa     28.9º    0.0 mm
   26-05-2017    08:15      19.3º(-1.8)     91%         -         0.0 km/h    1013.0 hpa     28.9º    0.0 mm
   26-05-2017    08:10      19.2º(-1.6)     91%         -         0.0 km/h    1013.0 hpa     28.9º    0.0 mm
   26-05-2017    08:05      19.2º(-1.5)     91%         -         0.0 km/h    1013.1 hpa     28.9º    0.0 mm
   26-05-2017    08:00      19.2º(-1.3)     91%         -         0.0 km/h    1013.1 hpa     28.9º    0.0 mm
   26-05-2017    07:55      19.2º(-1.2)     91%         -         0.0 km/h    1013.2 hpa     28.9º    0.0 mm
   26-05-2017    07:50      19.3º(-1.0)     91%         -         0.0 km/h    1013.1 hpa     28.9º    0.0 mm
   26-05-2017    07:45      19.3º(-0.9)     91%         -         0.0 km/h    1013.0 hpa     28.9º    0.0 mm
   26-05-2017    07:40      19.3º(-0.8)     91%         -         0.0 km/h    1013.0 hpa     28.9º    0.0 mm
   26-05-2017    07:35      19.3º(-0.7)     90%         -         0.0 km/h    1012.9 hpa     28.9º    0.0 mm
   26-05-2017    07:30      19.3º(-0.6)     91%         -         0.0 km/h    1012.9 hpa     28.9º    0.0 mm
   26-05-2017    07:25      19.3º(-0.6)     90%         -         0.0 km/h    1012.9 hpa     28.9º    0.0 mm
   26-05-2017    07:20      19.3º(-0.6)     90%         -         0.0 km/h    1012.9 hpa     28.8º    0.0 mm
   26-05-2017    07:15      19.3º(-0.6)     90%         -         0.0 km/h    1012.9 hpa     28.9º    0.0 mm
   26-05-2017    07:10      19.3º(-0.5)     91%         -         0.0 km/h    1012.8 hpa     28.9º    0.0 mm
   26-05-2017    07:05      19.3º(-0.5)     91%         -         0.0 km/h    1012.8 hpa     28.8º    0.0 mm
   26-05-2017    07:00      19.3º(-0.5)     91%         -         0.0 km/h    1012.8 hpa     28.8º    0.0 mm
   26-05-2017    06:55      19.3º(-0.6)     90%         -         0.0 km/h    1012.8 hpa     28.8º    0.0 mm
   26-05-2017    06:50      19.3º(-0.6)     91%         -         0.0 km/h    1012.7 hpa     28.8º    0.0 mm
   26-05-2017    06:45      19.3º(-0.7)     91%         -         0.0 km/h    1012.7 hpa     28.8º    0.0 mm
   26-05-2017    06:40      19.3º(-0.8)     90%         -         0.0 km/h    1012.7 hpa     28.8º    0.0 mm
   26-05-2017    06:35      19.3º(-0.9)     90%         -         0.0 km/h    1012.6 hpa     28.8º    0.0 mm
   26-05-2017    06:30      19.3º(-1.1)     90%         -         0.0 km/h    1012.5 hpa     28.8º    0.0 mm
   26-05-2017    06:25      19.3º(-1.5)     90%         -         0.0 km/h    1012.5 hpa     28.9º    0.0 mm
   26-05-2017    06:20      19.4º(-1.9)     90%         -         0.0 km/h    1012.2 hpa     28.9º    0.0 mm
   26-05-2017    06:15      19.4º(-2.2)     90%         -         0.0 km/h    1012.2 hpa     29.1º    0.0 mm
   26-05-2017    06:10      19.6º(-2.0)     90%         -         0.0 km/h    1012.3 hpa     29.1º    0.0 mm
   26-05-2017    06:05      19.6º(-2.0)     90%         -         0.0 km/h    1012.4 hpa     29.2º    0.0 mm
   26-05-2017    06:00      19.6º(-2.0)     90%         -         0.0 km/h    1012.3 hpa     29.2º    0.0 mm
   26-05-2017    05:55      19.6º(-2.0)     90%         -         0.0 km/h    1012.4 hpa     29.3º    0.0 mm
   26-05-2017    05:50      19.6º(-2.0)     90%         -         0.0 km/h    1012.4 hpa     29.3º    0.0 mm
   26-05-2017    05:45      19.4º(-2.2)     90%         -         0.0 km/h    1012.4 hpa     29.3º    0.0 mm
   26-05-2017    05:40      19.4º(-2.2)     90%         -         0.0 km/h    1012.4 hpa     29.3º    0.0 mm
   26-05-2017    05:35      19.4º(-2.0)     90%         -         0.0 km/h    1012.5 hpa     29.3º    0.0 mm
   26-05-2017    05:30      19.3º(-2.1)     90%         -         0.0 km/h    1012.4 hpa     29.3º    0.0 mm
   26-05-2017    05:25      19.3º(-2.1)     90%         -         0.0 km/h    1012.4 hpa     29.3º    0.0 mm
   26-05-2017    05:20      19.3º(-2.1)     90%         -         0.0 km/h    1012.5 hpa     29.3º    0.0 mm
   26-05-2017    05:15      19.3º(-2.1)     90%         -         0.0 km/h    1012.5 hpa     29.4º    0.0 mm
   26-05-2017    05:10      19.3º(-2.1)     90%         -         0.0 km/h    1012.5 hpa     29.4º    0.0 mm
   26-05-2017    05:05      19.3º(-2.1)     90%         -         0.0 km/h    1012.7 hpa     29.4º    0.0 mm
   26-05-2017    05:00      19.3º(-2.2)     90%         -         0.0 km/h    1012.5 hpa     29.4º    0.0 mm
   26-05-2017    04:55      19.3º(-2.2)     90%         -         0.0 km/h    1012.5 hpa     29.4º    0.0 mm
   26-05-2017    04:50      19.3º(-2.3)     90%         -         0.0 km/h    1012.5 hpa     29.4º    0.0 mm
   26-05-2017    04:45      19.3º(-2.3)     90%         -         0.0 km/h    1012.7 hpa     29.4º    0.0 mm
   26-05-2017    04:40      19.3º(-2.4)     90%         -         0.0 km/h    1012.8 hpa     29.4º    0.0 mm
   26-05-2017    04:35      19.3º(-2.4)     91%         -         0.0 km/h    1012.9 hpa     29.4º    0.0 mm
   26-05-2017    04:30      19.3º(-2.4)     91%         -         0.0 km/h    1012.9 hpa     29.4º    0.0 mm
   26-05-2017    04:25      19.3º(-2.4)     91%         -         0.0 km/h    1013.0 hpa     29.4º    0.0 mm
   26-05-2017    04:20      19.3º(-2.5)     91%         -         0.0 km/h    1013.0 hpa     29.4º    0.0 mm
   26-05-2017    04:15      19.3º(-2.5)     91%         -         0.0 km/h    1013.0 hpa     29.4º    0.0 mm
   26-05-2017    04:10      19.3º(-2.5)     91%         -         0.0 km/h    1013.0 hpa     29.4º    0.0 mm
   26-05-2017    04:05      19.3º(-2.5)     91%         -         0.0 km/h    1012.9 hpa     29.4º    0.0 mm
   26-05-2017    04:00      19.3º(-2.5)     91%         -         0.0 km/h    1013.0 hpa     29.4º    0.0 mm
   26-05-2017    03:55      19.2º(-2.6)     91%         -         0.0 km/h    1013.1 hpa     29.4º    0.0 mm
   26-05-2017    03:50      19.2º(-2.6)     91%         -         0.0 km/h    1013.1 hpa     29.5º    0.0 mm
   26-05-2017    03:45      19.1º(-2.7)     91%         -         0.0 km/h    1013.1 hpa     29.5º    0.0 mm
   26-05-2017    03:40      19.1º(-2.7)     91%         -         0.0 km/h    1013.1 hpa     29.5º    0.0 mm
   26-05-2017    03:35      19.0º(-2.8)     91%         -         0.0 km/h    1013.1 hpa     29.5º    0.0 mm
   26-05-2017    03:30      18.9º(-2.9)     90%         -         0.0 km/h    1013.2 hpa     29.5º    0.0 mm
   26-05-2017    03:25      19.0º(-2.8)     90%         -         0.0 km/h    1013.1 hpa     29.5º    0.0 mm
   26-05-2017    03:20      19.0º(-2.8)     90%         -         0.0 km/h    1013.2 hpa     29.5º    0.0 mm
   26-05-2017    03:15      19.1º(-2.7)     90%         -         0.0 km/h    1013.2 hpa     29.5º    0.0 mm
   26-05-2017    03:10      19.1º(-2.7)     90%         -         0.0 km/h    1013.2 hpa     29.5º    0.0 mm
   26-05-2017    03:05      19.1º(-2.7)     89%         -         0.0 km/h    1013.3 hpa     29.5º    0.0 mm
   26-05-2017    03:00      19.2º(-2.6)     89%         -         0.0 km/h    1013.3 hpa     29.5º    0.0 mm
   26-05-2017    02:55      19.3º(-2.5)     89%         -         0.0 km/h    1013.3 hpa     29.5º    0.0 mm
   26-05-2017    02:50      19.3º(-2.5)     89%         -         0.0 km/h    1013.3 hpa     29.6º    0.0 mm
   26-05-2017    02:45      19.3º(-2.5)     89%         -         0.0 km/h    1013.3 hpa     29.6º    0.0 mm
   26-05-2017    02:40      19.2º(-2.6)     89%         -         0.0 km/h    1013.3 hpa     29.6º    0.0 mm
   26-05-2017    02:35      19.2º(-2.7)     89%         -         0.0 km/h    1013.2 hpa     29.6º    0.0 mm
   26-05-2017    02:30      19.2º(-2.7)     89%         -         0.0 km/h    1013.3 hpa     29.6º    0.0 mm
   26-05-2017    02:25      19.2º(-2.7)     89%      270 (W)      3.2 km/h    1013.3 hpa     29.6º    0.0 mm
   26-05-2017    02:20      19.2º(-2.8)     89%      270 (W)      4.8 km/h    1013.3 hpa     29.6º    0.0 mm
   26-05-2017    02:15      19.3º(-2.7)     88%      270 (W)      8.0 km/h    1013.3 hpa     29.6º    0.0 mm
   26-05-2017    02:10      19.3º(-2.7)     88%      247(SW)      4.8 km/h    1013.3 hpa     29.6º    0.0 mm
   26-05-2017    02:05      19.4º(-2.7)     88%         -         0.0 km/h    1013.3 hpa     29.6º    0.0 mm
   26-05-2017    02:00      19.4º(-2.7)     88%      247(SW)      1.6 km/h    1013.3 hpa     29.6º    0.0 mm
   26-05-2017    01:55      19.4º(----)     87%      270 (W)      3.2 km/h    1013.2 hpa     29.6º    0.0 mm
   26-05-2017    01:50      19.4º(----)     87%      270 (W)      4.8 km/h    1013.3 hpa     29.6º    0.0 mm
   26-05-2017    01:45      19.4º(----)     87%      270 (W)      6.4 km/h    1013.3 hpa     29.6º    0.0 mm
   26-05-2017    01:40      19.6º(----)     86%      270 (W)      6.4 km/h    1013.2 hpa     29.6º    0.0 mm
   26-05-2017    01:35      19.7º(----)     86%      270 (W)      6.4 km/h    1013.3 hpa     29.6º    0.0 mm
   26-05-2017    01:30      19.8º(----)     85%      270 (W)      6.4 km/h    1013.2 hpa     29.6º    0.0 mm
   26-05-2017    01:25      19.9º(----)     85%      247(SW)      4.8 km/h    1013.1 hpa     29.6º    0.0 mm
   26-05-2017    01:20      20.0º(----)     84%      247(SW)      3.2 km/h    1013.1 hpa     29.6º    0.0 mm
   26-05-2017    01:15      20.1º(----)     84%      225(SW)      1.6 km/h    1013.0 hpa     29.6º    0.0 mm
   26-05-2017    01:10      20.1º(----)     84%         -         0.0 km/h    1013.0 hpa     29.6º    0.0 mm
   26-05-2017    01:05      20.1º(----)     84%         -         0.0 km/h    1013.0 hpa     29.6º    0.0 mm
   26-05-2017    01:00      20.2º(----)     84%      247(SW)      1.6 km/h    1013.0 hpa     29.6º    0.0 mm
   26-05-2017    00:55      20.2º(----)     83%      225(SW)      1.6 km/h    1012.9 hpa     29.6º    0.0 mm
   26-05-2017    00:50      20.2º(----)     83%      202 (S)      1.6 km/h    1013.0 hpa     29.7º    0.0 mm
   26-05-2017    00:45      20.2º(----)     83%      202 (S)      1.6 km/h    1013.1 hpa     29.7º    0.0 mm
   26-05-2017    00:40      20.3º(----)     82%      247(SW)      3.2 km/h    1013.0 hpa     29.7º    0.0 mm
   26-05-2017    00:35      20.4º(----)     82%      225(SW)      4.8 km/h    1013.0 hpa     29.7º    0.0 mm
   26-05-2017    00:30      20.4º(----)     81%      225(SW)      3.2 km/h    1013.0 hpa     29.7º    0.0 mm
   26-05-2017    00:25      20.5º(----)     81%      247(SW)      1.6 km/h    1013.0 hpa     29.7º    0.0 mm
   26-05-2017    00:20      20.6º(----)     80%      225(SW)      3.2 km/h    1013.0 hpa     29.7º    0.0 mm
   26-05-2017    00:15      20.7º(----)     79%      202 (S)      3.2 km/h    1013.0 hpa     29.7º    0.0 mm
   26-05-2017    00:10      20.9º(----)     78%      247(SW)      3.2 km/h    1012.9 hpa     29.7º    0.0 mm
   26-05-2017    00:05      21.0º(----)     77%      247(SW)      3.2 km/h    1012.9 hpa     29.8º    0.0 mm
   26-05-2017    00:00      21.1º(----)     77%      247(SW)      4.8 km/h    1012.8 hpa     29.8º    0.0 mm